Provo, UT

5:53 PM MST on December 05, 2019 (GMT -0700)
Provo Municipal

Weather History for KPVU - October, 2019

Change the Weather History Date:

Tuesday, October 15, 2019

  Actual Average Record
Temperature  
Mean Temperature 49 °F -  
Max Temperature 66 °F 62 °F 80 °F (2011)
Min Temperature 32 °F 35 °F 27 °F (2017)
Degree Days  
Heating Degree Days 16    
Moisture  
Dew Point 23 °F    
Average Humidity 42    
Maximum Humidity 66    
Minimum Humidity 14    
Precipitation  
Precipitation 0.00 in - - ()
Sea Level Pressure  
Sea Level Pressure 30.20 in    
Wind  
Wind Speed 2 mph (SSW)    
Max Wind Speed 10 mph    
Max Gust Speed -    
Visibility 10 miles    
Events      
Averages and records for this station are not official NWS values.
T = Trace of Precipitation, MM = Missing Value Source: NWS Daily Summary

Daily Weather History Graph

Daily Weather History Graph

Search for Another Location

Airport or City:

Astronomy

Oct. 15, 2019 Rise Set
Actual Time 7:37 AM MDT 6:47 PM MDT
Civil Twilight 7:10 AM MDT 7:14 PM MDT
Nautical Twilight 6:38 AM MDT 7:46 PM MDT
Astronomical Twilight 6:07 AM MDT 8:17 PM MDT
Moon 8:09 PM MDT (10/15) 9:11 AM MDT (10/15)
Length of Visible Light 12h 04m
Length of Day
11h 09m
Full, 97% of the Moon is Illuminated
Oct 15
Full
Oct 21
Last Quarter
Oct 27
New
Nov 4
First Quarter
Nov 12
Full

Hourly Weather History & Observations

Time (MDT) Temp. Windchill Dew Point Humidity Pressure Visibility Wind Dir Wind Speed Gust Speed Precip Events Conditions
12:56 AM 37.9 °F - 26.1 °F 62% 30.12 in 10.0 mi Calm Calm - N/A   Clear
1:56 AM 37.9 °F - 26.1 °F 62% 30.12 in 10.0 mi Calm Calm - N/A   Clear
2:56 AM 37.9 °F - 24.1 °F 57% 30.14 in 10.0 mi Calm Calm - N/A   Clear
3:56 AM 36.0 °F 32.1 °F 23.0 °F 59% 30.17 in 10.0 mi SSE 4.6 mph - N/A   Clear
4:56 AM 35.1 °F - 19.9 °F 54% 30.18 in 10.0 mi Calm Calm - N/A   Clear
5:56 AM 33.1 °F - 23.0 °F 66% 30.21 in 10.0 mi Calm Calm - N/A   Clear
6:56 AM 37.9 °F 30.9 °F 19.0 °F 47% 30.23 in 10.0 mi SE 10.4 mph - N/A   Clear
7:56 AM 32.0 °F 28.7 °F 19.9 °F 61% 30.25 in 5.0 mi ENE 3.5 mph - N/A   Haze
8:56 AM 42.1 °F 38.4 °F 21.0 °F 43% 30.24 in 10.0 mi SE 5.8 mph - N/A   Clear
9:56 AM 48.0 °F - 15.1 °F 27% 30.27 in 10.0 mi Calm Calm - N/A   Clear
10:56 AM 54.0 °F - 16.0 °F 22% 30.26 in 10.0 mi SSE 6.9 mph - N/A   Clear
11:56 AM 55.9 °F - 21.0 °F 26% 30.25 in 10.0 mi West 5.8 mph - N/A   Clear
12:56 PM 55.0 °F - 27.0 °F 34% 30.25 in 10.0 mi West 5.8 mph - N/A   Clear
1:56 PM 60.1 °F - 21.0 °F 22% 30.22 in 10.0 mi West 4.6 mph - N/A   Clear
2:56 PM 64.0 °F - 17.1 °F 16% 30.18 in 10.0 mi Variable 3.5 mph - N/A   Partly Cloudy
3:56 PM 64.9 °F - 19.0 °F 17% 30.17 in 10.0 mi WNW 4.6 mph - N/A   Scattered Clouds
4:56 PM 66.0 °F - 15.1 °F 14% 30.16 in 10.0 mi Variable 5.8 mph - N/A   Scattered Clouds
5:56 PM 64.0 °F - 21.0 °F 19% 30.17 in 10.0 mi Variable 5.8 mph - N/A   Scattered Clouds
6:56 PM 57.0 °F - 27.0 °F 32% 30.18 in 10.0 mi NNW 5.8 mph - N/A   Scattered Clouds
7:56 PM 50.0 °F - 28.0 °F 43% 30.24 in 10.0 mi SE 4.6 mph - N/A   Clear
8:56 PM 46.9 °F - 33.1 °F 59% 30.23 in 10.0 mi Calm Calm - N/A   Clear
9:56 PM 46.9 °F - 28.0 °F 48% 30.22 in 10.0 mi Calm Calm - N/A   Clear
10:56 PM 43.0 °F - 28.0 °F 56% 30.21 in 10.0 mi Calm Calm - N/A   Clear
11:56 PM 42.1 °F - 28.0 °F 58% 30.21 in 10.0 mi Calm Calm - N/A   Clear